ONEWEB-0018, 45434

Orbit data source: Space-Track

ONEWEB-0018, 45434 is a payload satellite owned by One Web (UK) in LEO that was launched on Sat, 21 Mar 2020 UTC via a SOYUZ-2-1B launch vehicle from the Tyuratam Missile And Space Complex (TTMTR). Payload-class satellites include a variety of spacecraft equipped with specific instruments for various scientific and technological missions. These include communications satellites like Starlink; space stations such as the ISS; scientific satellites like the Hubble; Earth observation satellites from companies like Planet Labs, Umbra, and HawkEye 360; GPS; miniature CubeSats for education and research; and military/defense satellites.

Loading next visibility...
Identifier
45434, 2020-020L
Orbit
LEO
Country
Flag of UKUK
Related business
Manufacturer
One Web
Mission
Operational Commercial Communications
Bus & Motor
ARROW, Unknown motor
Mass
148 kg wet, ~140 kg dry
Launch date (UTC)
2020-03-21 (6 years ago)
Launch vehicle
SOYUZ-2-1B
Launch site
Tyuratam Missile And Space Complex (TTMTR)
Object type
Payload
Rocket body
Debris
Shape & HBR
Trap Box + 2 Pan, 6.7 m
Radar Cross Section
3.464 m², Large (>1 m²)

Expand to show TLE details & history
Last TLE update: 10 hours ago

TLE from 10 hours ago
0 ONEWEB-0018
1 45434U 20020L   26035.08003651  .00000207  00000-0  54897-3 0  9998
2 45434  87.8824  47.5509 0001682  89.4902 270.6419 13.11420101285185
Epoch: 2026-02-04T01:55Z
TLE epoch observation values (Epoch: 2026-02-04T01:55:15.154Z)
Latitude
0.00001°
Longitude
-115.514°
Altitude
1,220.546 km
Speed
7.244 km/s
True Right ascension
03h 10m 12s
True Declination
0° 00' 00"
Sunlit
Object was in daylight at epoch
Visualization orbit readout
Latitude
Unknown
Longitude
Unknown
Altitude
Unknown
Speed
Unknown
Apparent Right ascension
Unknown
Apparent Declination
Unknown
Sunlit
N/A
Visualization observer readout
Local Sidereal Time
14:17:21
Azimuth
Unknown
Elevation
Unknown
Doppler factor
Unknown
Orbital elements
Apogee altitude
1,216.066 km
Perigee altitude
1,213.512 km
Semi-major axis
7,592.926 km
Eccentricity
0.00017
Inclination
87.8824°
RAAN
47.5509°
Arg. of periapsis
89.4902°
True anomaly
270.62263°
Mean anomaly
270.6419°
Eccentric anomaly
270.63226°
Mean motion
3.28042 °/min
Orbital period
109.74 mins
BSTAR
0.00054897
Loading maneuver chart data...
Computing Atmospheric mass density...
Loading historical data...
Loading historical data...
Loading historical data...
Loading historical data...
Loading historical data...
Loading historical data...
Loading historical data...

Documentation

Showing up to 5 results
|